Terminal Aerodrome Forecast
Issued by NWS

Home | Current Version | Previous Version | Text Only | Print | Product List | Glossary Off
Versions: 1 2 3 4 5 6 7 8 9 10 11 12 13 14 15 16 17 18 19 20 21 22

000
FTUS41 KCLE 251100
TAFFDY
TAF
KFDY 251135Z 2512/2612 20006KT P6SM BKN040 OVC070
     FM251400 23012KT P6SM BKN018
     FM251800 27015G22KT P6SM SCT025
     FM252300 28008KT P6SM SKC=

USA.gov is the U.S. government's official web portal to all federal, state and local government web resources and services.